Content
SEND FEEDBACK

Daily
Averages
Monthly
Summary
United States of America

CASTALIA, OHIO


Home > North America > United States > Ohio
Elevation: 589 feet     Latitude: 41 27N     Longitude: 082 43W

WEATHER
 
SELECT A DAY
Number of Records: 180,309;   Date Range: 10/8/98 - 7/26/14
 
SHARE

PRINT THIS DATA

[ ← Previous Day ]
WEATHER ALMANAC - MARCH 12, 2013
[ Next Day → ]
[ °C ]   °F
Weather ElementAverageHighLow
Temperature35.6 °F39 °F (1:53 am)33.1 °F (11:53 pm)
Dewpoint29.6 °F33.8 °F (2:42 am)26.6 °F (6:40 pm)
Humidity79.4 %93 % (8:23 am)70 % (4:16 pm)
Barometer29.90 in29.99 in (8:53 pm)29.80 in (1:53 am)
Wind Speed13.6 mph20.7 mph (3:53 am)
Wind Gust27.6 mph (3:53 pm)
Weather ElementAverage
Visibility8.4 mi
Wind DirectionWSW (257.4 °)

Weather ElementTotal
Precipitation0.04 in
Heating Degree Days29 (Base 65)
Averaged from 39 records on March 12, 2013
WEATHER CONDITIONS BREAKOUT
WIND DIRECTION BREAKOUT
WEATHER BY HOUR - MARCH 12, 2013
[ °C ]   °F
Local TimeTemperatureDewpointHumidityBarometerVisibilityWind DirectionWind SpeedGust SpeedPrecipitationEventsConditions
1:53 AM39.0 °F32.0 °F76 %29.80 in10.0 miWest (260°)17.3 mphOvercast
2:42 AM37.4 °F33.8 °F87 %29.80 in10.0 miWSW (250°)13.8 mphOvercast
2:50 AM37.4 °F33.8 °F87 %29.80 in10.0 miWest (260°)16.1 mphOvercast
2:53 AM37.9 °F33.1 °F83 %29.82 in10.0 miWest (260°)13.8 mphOvercast
3:53 AM37.9 °F30.9 °F76 %29.82 in10.0 miWest (260°)20.7 mphOvercast
4:53 AM37.0 °F30.9 °F79 %29.83 in10.0 miWest (260°)12.7 mphOvercast
5:53 AM36.0 °F30.9 °F82 %29.84 in8.0 miWSW (240°)15.0 mphOvercast
6:34 AM35.6 °F30.2 °F81 %29.84 in10.0 miWSW (250°)17.3 mph26.5 mphOvercast
6:53 AM36.0 °F30.9 °F82 %29.86 in10.0 miWest (260°)12.7 mphOvercast
7:08 AM35.6 °F30.2 °F81 %29.85 in10.0 miWSW (240°)10.4 mphOvercast
7:53 AM35.1 °F30.9 °F85 %29.88 in5.0 miWest (280°)12.7 mph23.0 mph0.00 inSnowLight Snow
7:56 AM33.8 °F30.2 °F87 %29.87 in2.0 miWest (270°)17.3 mph21.9 mph0.00 inSnowLight Snow
7:58 AM33.8 °F30.2 °F87 %29.87 in1.5 miWest (270°)15.0 mph21.9 mph0.00 inSnowLight Snow
8:03 AM33.8 °F30.2 °F87 %29.87 in0.8 miWest (270°)13.8 mph21.9 mph0.00 inSnowLight Snow
8:18 AM33.8 °F30.2 °F87 %29.87 in1.2 miWest (260°)9.2 mph0.01 inSnowLight Snow
8:23 AM33.8 °F32.0 °F93 %29.87 in4.0 miWSW (250°)10.4 mph0.01 inOvercast
8:31 AM33.8 °F30.2 °F87 %29.87 in8.0 miWest (260°)13.8 mph0.01 inOvercast
8:53 AM35.1 °F30.0 °F82 %29.89 in10.0 miWest (260°)9.2 mph0.01 inOvercast
9:53 AM35.1 °F30.0 °F82 %29.91 in10.0 miWSW (250°)13.8 mphOvercast
10:53 AM36.0 °F30.0 °F79 %29.92 in10.0 miWSW (250°)15.0 mphOvercast
11:53 AM36.0 °F30.0 °F79 %29.93 in9.0 miWSW (250°)15.0 mphOvercast
12:30 PM35.6 °F30.2 °F81 %29.91 in5.0 miWest (260°)13.8 mph0.00 inOvercast
12:53 PM35.1 °F30.0 °F82 %29.92 in8.0 miWSW (250°)12.7 mph24.2 mph0.00 inOvercast
1:11 PM35.6 °F30.2 °F81 %29.90 in9.0 miWSW (240°)20.7 mphOvercast
1:53 PM37.0 °F30.0 °F76 %29.92 in9.0 miWest (270°)17.3 mphOvercast
2:53 PM37.0 °F30.0 °F76 %29.93 in8.0 miWest (280°)17.3 mph23.0 mphOvercast
3:53 PM36.0 °F28.9 °F76 %29.93 in10.0 miWest (270°)17.3 mph27.6 mph0.00 inOvercast
4:16 PM37.4 °F28.4 °F70 %29.91 in10.0 miWest (260°)17.3 mph25.3 mphOvercast
4:53 PM36.0 °F27.0 °F70 %29.93 in10.0 miWSW (250°)17.3 mph23.0 mphOvercast
5:53 PM36.0 °F27.0 °F70 %29.94 in10.0 miWest (270°)11.5 mphOvercast
6:40 PM35.6 °F26.6 °F70 %29.94 in10.0 miWest (270°)15.0 mph20.7 mphOvercast
6:53 PM35.1 °F27.0 °F72 %29.97 in10.0 miWest (260°)12.7 mph20.7 mphOvercast
7:02 PM35.6 °F26.6 °F70 %29.95 in10.0 miWest (270°)15.0 mph21.9 mphOvercast
7:45 PM35.6 °F26.6 °F70 %29.96 in10.0 miWest (270°)12.7 mphOvercast
7:53 PM35.1 °F27.0 °F72 %29.98 in10.0 miWest (280°)6.9 mphOvercast
8:53 PM34.0 °F28.0 °F79 %29.99 in10.0 miWSW (240°)5.8 mphOvercast
9:53 PM34.0 °F28.0 °F79 %29.99 in10.0 miSW (230°)6.9 mphOvercast
10:53 PM34.0 °F27.0 °F75 %29.98 in10.0 miSW (220°)8.1 mphScattered Clouds
11:53 PM33.1 °F27.0 °F78 %29.98 in10.0 miWSW (240°)8.1 mphClear
Hourly data recorded from KLPR, located miles away from Castalia, Ohio







STORIES FROM OUR PARTNERS